"TOA5","AWS1","CR1000","7964","CR1000.Std.14","CPU:AWS1_114.CR1","64363","TBL110"
"TIMESTAMP","RECORD","Wind_spd_WVc(1)","Wind_spd_WVc(2)","Air_Temp_Avg","Humidity_Avg","SW_upper_Wm2_Avg","Rain_Tot","Press_Avg","Issui_Tot","Depth_cm","SR50A_Raw","Quality","Ground_Temp_Avg(1)","Ground_Temp_Avg(2)","SW_lower_Wm2_Avg","Albedo_Avg","SWC_per(1)","SWC_per(2)","Period(1)","Period(2)"
"TS","RN","","","","","","","","","","","","","","","","","","",""
"","","WVc","WVc","Avg","Avg","Avg","Tot","Avg","Tot","Smp","Smp","Smp","Avg","Avg","Avg","Avg","Smp","Smp","Smp","Smp"
"2018-03-08 00:00:00",330829,0.074,66.62,-1.31,100,0,0,872.4169,0,72.63,2.46,167,0.679,1.114,0.1327246,0,53.78,61.88,34.22,36.11
"2018-03-08 00:10:00",330830,0.253,21.35,-1.518,100,0,0,872.3768,0,72.75,2.459,168,0.679,1.114,0.00379213,0,53.78,61.88,34.22,36.11
"2018-03-08 00:20:00",330831,0.071,70.11,-1.433,100,0,0,872.2651,0,72.79,2.459,171,0.679,1.111,0,0,53.73,61.94,34.21,36.12
"2018-03-08 00:30:00",330832,0.26,120.7,-1.447,100,0,0,872.0901,0,72.79,2.459,168,0.679,1.115,0.01896065,0,53.73,61.88,34.21,36.11
"2018-03-08 00:40:00",330833,0.228,134.2,-1.463,100,0,0,871.8625,0,72.77,2.459,168,0.679,1.114,0,0,53.73,61.88,34.21,36.11
"2018-03-08 00:50:00",330834,0.213,138.1,-1.489,100,0,0,871.6855,0,72.83,2.459,168,0.679,1.111,0.1327246,0,53.73,61.94,34.21,36.12
"2018-03-08 01:00:00",330835,0.274,150.8,-1.506,100,0,0,871.5422,0,72.75,2.459,168,0.679,1.111,0.1554773,0,53.78,61.88,34.22,36.11
"2018-03-08 01:10:00",330836,0.107,196.7,-1.437,100,0,0,871.304,0,72.78,2.458,166,0.679,1.117,0.2237357,0,53.73,61.88,34.21,36.11
"2018-03-08 01:20:00",330837,0.301,202.1,-1.327,100,0,0,871.2008,0,72.71,2.459,167,0.679,1.111,0.2237357,0,53.73,61.88,34.21,36.11
"2018-03-08 01:30:00",330838,0.06,350.9,-1.471,100,0,0,871.1312,0,72.69,2.46,168,0.679,1.111,0.007584261,0,53.73,61.88,34.21,36.11
"2018-03-08 01:40:00",330839,0.077,324.9,-1.55,100,0,0,871.1312,0,72.65,2.46,167,0.679,1.111,0,0,53.73,61.88,34.21,36.11
"2018-03-08 01:50:00",330840,0,0,-1.566,100,0,0,871.1017,0,72.59,2.461,168,0.679,1.111,0.174438,0,53.67,61.94,34.19,36.12
"2018-03-08 02:00:00",330841,0.234,59.73,-1.626,99.9,0,0,871.1165,0,72.83,2.459,171,0.679,1.111,0.2389042,0,53.73,61.88,34.21,36.11
"2018-03-08 02:10:00",330842,0.167,99.2,-1.535,99.7,0,0,871.1544,0,72.69,2.46,167,0.679,1.111,0.3109547,0,53.73,61.88,34.21,36.11
"2018-03-08 02:20:00",330843,0.557,125,-1.617,99.7,0,0,871.1354,0,72.75,2.46,171,0.679,1.111,0.2692412,0,53.67,61.88,34.19,36.11
"2018-03-08 02:30:00",330844,0.783,147.7,-1.63,100,0,0,870.9836,0,72.75,2.46,167,0.679,1.111,0.1782301,0,53.73,61.88,34.21,36.11
"2018-03-08 02:40:00",330845,1.079,100.3,-0.948,87.4,0.1415889,0,870.8888,0,72.79,2.452,175,0.682,1.114,0.8911616,1.559,53.67,61.88,34.19,36.11
"2018-03-08 02:50:00",330846,1.447,144.9,0.888,66.12,0.3500398,0,870.7413,0,72.88,2.443,184,0.684,1.116,1.247632,2.472,53.67,61.88,34.19,36.11
"2018-03-08 03:00:00",330847,2.282,147.7,2.333,59.26,0.01966545,0,870.4841,0,72.69,2.441,179,0.687,1.113,0.4702384,0.337,53.67,61.88,34.19,36.11
"2018-03-08 03:10:00",330848,2.16,145.5,2.842,59.33,0,0,870.2143,0,72.66,2.439,179,0.678,1.093,0.02275334,0,53.67,61.88,34.19,36.11
"2018-03-08 03:20:00",330849,1.834,153.1,2.956,62.4,0,0,870.267,0,72.78,2.439,180,0.649,1.122,0,0,53.67,61.88,34.19,36.11
"2018-03-08 03:30:00",330850,1.928,146.6,3.087,65.09,0,0,870.1237,0,72.77,2.438,184,0.614,1.116,0,0,53.67,61.88,34.19,36.11
"2018-03-08 03:40:00",330851,1.228,153.7,3.122,66.23,0,0,869.9656,0,72.67,2.439,181,0.603,1.114,0,0,53.67,61.82,34.19,36.09
"2018-03-08 03:50:00",330852,1.651,159,3.403,67.01,0,0,869.7527,0,72.49,2.439,166,0.624,1.133,0,0,53.67,61.82,34.19,36.09
"2018-03-08 04:00:00",330853,1.173,161.9,3.521,68.29,0,0,869.8665,0,72.7,2.437,178,0.673,1.188,0,0,53.67,61.82,34.19,36.09
"2018-03-08 04:10:00",330854,1.51,141.3,3.498,70.08,0,0,869.6621,0,72.52,2.438,186,0.699,1.198,0,0,53.67,61.82,34.19,36.09
"2018-03-08 04:20:00",330855,2.081,150.6,4.082,70.42,0,0,869.4598,0,72.61,2.435,188,0.715,1.197,0.007584268,0,53.67,61.82,34.19,36.09
"2018-03-08 04:30:00",330856,1.818,155.4,4.382,70.61,0,0,869.3354,0,72.66,2.433,201,0.749,1.188,0,0,53.67,61.82,34.19,36.09
"2018-03-08 04:40:00",330857,1.413,158.7,4.682,70.21,0,0,869.1759,0,72.56,2.433,184,0.734,1.156,0,0,53.61,61.82,34.18,36.09
"2018-03-08 04:50:00",330858,0.891,327.2,3.943,72.04,0,0,869.0764,0,72.42,2.443,189,0.724,1.153,0,0,53.61,61.82,34.18,36.09
"2018-03-08 05:00:00",330859,0.765,305.9,2.034,76.95,0,0,869.2465,0,72.35,2.451,187,0.733,1.154,0,0,53.61,61.82,34.18,36.09
"2018-03-08 05:10:00",330860,0.612,287,0.821,78.79,0,0,869.3448,0,72.52,2.451,195,0.756,1.176,0,0,53.61,61.82,34.18,36.09
"2018-03-08 05:20:00",330861,0.206,98.2,0.724,80.6,0,0,869.3043,0,72.49,2.452,190,0.755,1.187,0,0,53.61,61.82,34.18,36.09
"2018-03-08 05:30:00",330862,0.287,171.5,0.894,80.8,0.1494355,0,869.4771,0,72.26,2.452,196,0.726,1.171,0.08341715,0.185,53.61,61.76,34.18,36.08
"2018-03-08 05:40:00",330863,0.196,187.6,1.04,79.57,0.1651625,0,869.5238,0,72.31,2.452,201,0.697,1.162,0.003791666,0.008,53.61,61.76,34.18,36.08
"2018-03-08 05:50:00",330864,0.654,97.5,0.944,81.7,0,0,869.4557,0,72.48,2.451,188,0.702,1.163,0,0,53.61,61.76,34.18,36.08
"2018-03-08 06:00:00",330865,0.434,178,1.057,82.3,0.2674173,0,869.4881,0,72.56,2.449,190,0.695,1.173,0.04550195,0.104,53.56,61.76,34.17,36.08
"2018-03-08 06:10:00",330866,0.103,13.44,1.237,81.5,0.3696761,0,869.6461,0,72.35,2.452,191,0.694,1.182,0.1099646,0.233,53.56,61.76,34.17,36.08
"2018-03-08 06:20:00",330867,0.055,111.2,0.734,85,0.4090185,0,869.573,0,72.44,2.453,181,0.713,1.189,0.0492966,0.037,53.61,61.76,34.18,36.08
"2018-03-08 06:30:00",330868,0.166,117.8,0.651,84.1,3.523897,0,869.4799,0,72.38,2.453,191,0.725,1.194,1.429616,0.391,53.61,61.76,34.18,36.08
"2018-03-08 06:40:00",330869,0.826,93.4,0.707,84,6.988856,0,869.1169,0,72.46,2.453,181,0.709,1.197,3.439448,0.493,53.61,61.76,34.18,36.08
"2018-03-08 06:50:00",330870,0.355,278.8,0.486,83.8,8.298556,0,868.9075,0,72.66,2.451,178,0.704,1.198,4.54676,0.547,53.56,61.76,34.17,36.08
"2018-03-08 07:00:00",330871,0.48,206.2,0.737,83.4,8.963235,0,868.739,0,72.34,2.453,177,0.689,1.198,5.225555,0.583,53.56,61.76,34.17,36.08
"2018-03-08 07:10:00",330872,0.378,296.9,0.593,86.7,10.88252,0,868.9399,0,72.44,2.453,179,0.693,1.198,5.612353,0.524,53.61,61.76,34.18,36.08
"2018-03-08 07:20:00",330873,0.316,330.4,0.576,87.5,17.53711,0,869.0256,0,72.46,2.453,178,0.697,1.198,8.376816,0.478,53.56,61.76,34.17,36.08
"2018-03-08 07:30:00",330874,0.192,239.5,0.696,85.4,24.7383,0,868.8653,0,72.38,2.453,184,0.691,1.197,11.56217,0.468,53.56,61.7,34.17,36.06
"2018-03-08 07:40:00",330875,0.219,141.2,0.798,85,43.70649,0,868.4844,0,72.51,2.451,174,0.697,1.194,19.45337,0.445,53.56,61.7,34.17,36.06
"2018-03-08 07:50:00",330876,0.554,156.6,1.751,84.1,89.2373,0,868.1292,0,72.3,2.448,178,0.71,1.193,39.16814,0.441,53.56,61.7,34.17,36.06
"2018-03-08 08:00:00",330877,1.018,304.8,2.178,81.3,115.0851,0,867.9692,0,72.4,2.449,173,0.751,1.189,49.3426,0.429,53.56,61.7,34.17,36.06
"2018-03-08 08:10:00",330878,0.483,253.3,2.014,81.8,93.63035,0,867.639,0,72.16,2.446,173,0.741,1.17,40.77218,0.435,53.56,61.7,34.17,36.06
"2018-03-08 08:20:00",330879,0.926,305.6,2.734,79.49,89.84318,0,867.5135,0,72.13,2.449,176,0.709,1.118,38.85179,0.432,53.56,61.7,34.17,36.06
"2018-03-08 08:30:00",330880,1.008,296.1,1.49,81.4,69.32523,0,867.4469,0,72.43,2.45,174,0.687,1.109,29.98803,0.433,53.56,61.7,34.17,36.06
"2018-03-08 08:40:00",330881,0.944,308.2,1.239,83.4,42.74526,0,867.3912,0,72.38,2.451,180,0.658,1.079,18.6946,0.437,53.5,61.7,34.15,36.06
"2018-03-08 08:50:00",330882,0.587,126.6,2.238,84.6,73.15062,0,867.2435,0,72.19,2.443,184,0.639,1.051,33.02699,0.451,53.5,61.7,34.15,36.06
"2018-03-08 09:00:00",330883,0.681,306.3,2.774,80.5,113.4131,0,867.0117,0,72.59,2.439,184,0.613,1.034,50.45286,0.445,53.56,61.7,34.17,36.06
"2018-03-08 09:10:00",330884,1.646,309.3,3.798,77.06,138.445,0,866.8453,0,71.81,2.45,190,0.594,1.074,61.58998,0.444,53.56,61.7,34.17,36.06
"2018-03-08 09:20:00",330885,0.787,313.3,1.571,81.9,118.8808,0,866.74,0,72.6,2.447,189,0.593,1.079,53.05662,0.446,53.5,61.7,34.15,36.06
"2018-03-08 09:30:00",330886,0.868,316.4,2.824,86.3,122.085,0,866.4893,0,71.79,2.452,172,0.593,1.096,55.50547,0.455,53.5,61.64,34.15,36.05
"2018-03-08 09:40:00",330887,0.672,315.6,1.755,90.9,66.89668,0.5,866.4808,0,72.51,2.445,172,0.593,1.105,30.19024,0.451,53.5,61.64,34.15,36.05
"2018-03-08 09:50:00",330888,0.788,349.6,3.074,99.3,94.32765,0.5,866.2511,0,71.75,2.447,181,0.593,1.109,42.59386,0.452,53.5,61.64,34.15,36.05
"2018-03-08 10:00:00",330889,0.827,312.1,3.089,95.3,143.0798,0,866.0742,0.5,71.84,2.448,173,0.593,1.123,63.42831,0.444,53.5,61.64,34.15,36.05
"2018-03-08 10:10:00",330890,1.018,320.9,2.893,99.7,160.7407,0,865.8761,0,72.48,2.443,181,0.593,1.171,70.28973,0.437,53.5,61.64,34.15,36.05
"2018-03-08 10:20:00",330891,1.292,139.2,4.136,94.1,137.2689,0,865.5664,0,72.01,2.437,191,0.593,1.169,61.98779,0.451,53.5,61.64,34.15,36.05
"2018-03-08 10:30:00",330892,1.523,299,3.911,87.2,123.5593,0,865.4863,0,72.02,2.446,179,0.593,1.16,54.53501,0.441,53.5,61.64,34.15,36.05
"2018-03-08 10:40:00",330893,1.096,165.8,3.891,92.9,97.7403,0,865.3958,0,71.68,2.441,192,0.593,1.178,44.07987,0.45,53.45,61.64,34.14,36.05
"2018-03-08 10:50:00",330894,1.534,183.1,4.803,85.8,207.7827,0,865.1894,0,72.14,2.431,187,0.593,1.165,93.16365,0.449,53.5,61.64,34.15,36.05
"2018-03-08 11:00:00",330895,1.907,153.8,6.799,75.44,237.4704,0,864.9957,0,71.9,2.43,181,0.603,1.141,105.9805,0.446,53.5,61.64,34.15,36.05
"2018-03-08 11:10:00",330896,2.743,162.3,7.282,72.6,134.7763,0,864.7444,0,71.17,2.436,189,0.622,1.113,62.07877,0.461,53.45,61.58,34.14,36.04
"2018-03-08 11:20:00",330897,1.738,132.2,7.158,74.05,132.4409,0.5,864.657,0,70.96,2.443,172,0.646,1.111,61.55943,0.464,53.45,61.64,34.14,36.05
"2018-03-08 11:30:00",330898,1.187,122,5.498,83.1,107.6362,0,864.4266,0,72.18,2.43,201,0.664,1.112,49.37946,0.458,53.5,61.58,34.15,36.04
"2018-03-08 11:40:00",330899,2.428,144.1,7.48,71.65,188.9109,0,864.0446,0,71.22,2.432,192,0.682,1.112,86.99975,0.461,53.45,61.58,34.14,36.04
"2018-03-08 11:50:00",330900,2.26,145.3,7.936,69.1,181.5155,0,863.7406,0,70.95,2.435,196,0.679,1.111,82.81087,0.456,53.5,61.58,34.15,36.04
"2018-03-08 12:00:00",330901,1.886,135.4,8.07,68.31,193.8573,0,863.5883,0,70.73,2.437,187,0.675,1.107,88.28706,0.456,53.5,61.64,34.15,36.05
"2018-03-08 12:10:00",330902,2.863,154.5,8.18,67.58,204.4487,0,863.249,0,70.73,2.435,188,0.663,1.101,91.56799,0.448,53.5,61.64,34.15,36.05
"2018-03-08 12:20:00",330903,2.73,142.6,8.43,66.36,189.8439,0,863.1563,0,71,2.433,177,0.629,1.091,84.88937,0.447,53.56,61.7,34.17,36.06
"2018-03-08 12:30:00",330904,2.126,154.4,8.13,67.19,95.01543,0,863.0762,0,71.08,2.434,190,0.596,1.066,42.79894,0.451,53.61,61.7,34.18,36.06
"2018-03-08 12:40:00",330905,2.3,148,7.873,68.53,80.82851,0,862.9352,0,70.56,2.439,180,0.578,1.042,38.751,0.48,53.67,61.82,34.19,36.09
"2018-03-08 12:50:00",330906,3.137,162.2,7.924,68.18,85.01443,0,862.6634,0,70.63,2.437,173,0.566,1.029,39.55635,0.466,53.67,61.82,34.19,36.09
"2018-03-08 13:00:00",330907,2.277,146,8.05,68.49,85.60628,0,862.3412,0,71.06,2.433,185,0.562,1.025,41.33669,0.482,53.78,61.88,34.22,36.11
"2018-03-08 13:10:00",330908,2.481,170.2,8.18,68.64,90.82521,0,862.0189,0,70.45,2.44,171,0.58,1.022,42.90911,0.473,53.95,62,34.26,36.13
"2018-03-08 13:20:00",330909,1.653,158.2,7.984,68.84,94.62169,0,862.0253,0.5,70.49,2.439,178,0.573,1.023,43.8261,0.463,54.29,62.06,34.34,36.15
"2018-03-08 13:30:00",330910,2.468,146.6,8.17,67.3,113.8643,0,861.9115,0,70.19,2.441,173,0.553,1.022,53.33026,0.468,54.46,62.18,34.38,36.17
"2018-03-08 13:40:00",330911,3.014,150.9,8.3,67.76,138.2282,0,861.6419,0,70.62,2.436,182,0.558,1.024,63.96372,0.463,54.58,62.24,34.41,36.19
"2018-03-08 13:50:00",330912,3.384,157,8.41,67.76,110.6533,0,861.2944,0,70.54,2.437,181,0.559,1.022,51.2119,0.463,54.69,62.3,34.44,36.2
"2018-03-08 14:00:00",330913,2.272,160,8.5,67.02,109.71,0,861.2122,0,70.1,2.44,173,0.552,1.022,50.23041,0.458,54.8,62.36,34.46,36.21
"2018-03-08 14:10:00",330914,2.987,145.2,8.78,65.69,116.3601,0,860.8879,0,70.1,2.44,174,0.55,1.022,52.44729,0.451,54.86,62.42,34.48,36.23
"2018-03-08 14:20:00",330915,2.637,159.9,9.04,65.03,132.4035,0,861.0037,0,69.72,2.443,189,0.552,1.022,58.93499,0.445,54.92,62.48,34.49,36.24
"2018-03-08 14:30:00",330916,2.927,155,8.96,66.13,96.24487,0,860.9996,0,69.32,2.447,180,0.559,1.034,43.40923,0.452,55.03,62.6,34.52,36.27
"2018-03-08 14:40:00",330917,3.022,153.2,8.69,69.07,106.2278,0,860.9047,0,69.32,2.449,179,0.561,1.034,48.79039,0.46,55.09,62.66,34.53,36.28
"2018-03-08 14:50:00",330918,3.199,149.7,8.57,70.03,104.2823,0,860.5994,0,69.25,2.449,184,0.555,1.028,47.13056,0.452,55.09,62.66,34.53,36.28
"2018-03-08 15:00:00",330919,2.487,154.1,8.77,69.45,54.44233,0,860.5341,0,69.27,2.449,178,0.55,1.022,26.1327,0.482,55.15,62.72,34.55,36.3
"2018-03-08 15:10:00",330920,1.938,145.7,8.35,72.22,79.43503,0,860.3234,0,69.27,2.449,188,0.55,1.022,37.12996,0.47,55.2,62.78,34.56,36.31
"2018-03-08 15:20:00",330921,3.14,153,8.91,69.9,94.53912,0,860.077,0,68.85,2.451,186,0.552,1.024,42.66269,0.451,55.2,62.84,34.56,36.32
"2018-03-08 15:30:00",330922,3.056,156.6,9.13,69.48,82.38667,0.5,859.898,0,68.87,2.451,177,0.558,1.036,36.57289,0.444,55.2,62.84,34.56,36.32
"2018-03-08 15:40:00",330923,3.208,150.6,9.06,70.11,82.14693,0,859.5568,0,69.26,2.446,175,0.559,1.043,35.62551,0.433,55.26,62.9,34.57,36.34
"2018-03-08 15:50:00",330924,3.952,144.4,9.57,67.99,97.22744,0,859.3104,0,68.5,2.452,186,0.552,1.046,42.333,0.436,55.26,62.96,34.57,36.35
"2018-03-08 16:00:00",330925,2.821,141.7,9.53,67.94,114.9766,0,859.0976,0,68.69,2.45,181,0.548,1.06,49.18071,0.427,55.26,62.96,34.57,36.35
"2018-03-08 16:10:00",330926,3.264,165.5,9.84,67.33,94.30724,0,859.0555,0,68.7,2.45,183,0.548,1.066,39.4719,0.418,55.32,62.96,34.59,36.35
"2018-03-08 16:20:00",330927,2.631,153.6,9.68,68.19,102.325,0,859.0912,0,68.2,2.454,186,0.548,1.066,42.84459,0.419,55.37,62.96,34.6,36.35
"2018-03-08 16:30:00",330928,2.86,156.5,9.73,67.82,81.73032,0,858.967,0,68.34,2.453,185,0.55,1.063,33.75347,0.413,55.32,63.02,34.59,36.36
"2018-03-08 16:40:00",330929,4.264,158.5,9.88,67.69,76.98646,0,858.7142,0,68.22,2.454,183,0.548,1.066,32.10502,0.417,55.37,63.02,34.6,36.36
"2018-03-08 16:50:00",330930,3.109,158.6,9.75,69.91,36.46127,0,858.7206,0,68.16,2.455,182,0.548,1.066,15.70008,0.434,55.37,63.08,34.6,36.38
"2018-03-08 17:00:00",330931,4.109,153.5,9.98,70.1,27.4334,0,858.5921,0,67.54,2.459,182,0.548,1.066,12.22886,0.445,55.37,63.08,34.6,36.38
"2018-03-08 17:10:00",330932,3.299,149.3,9.9,70.3,16.92775,0,858.5057,0,67.97,2.457,190,0.551,1.066,6.862865,0.404,55.43,63.14,34.61,36.39
"2018-03-08 17:20:00",330933,2.267,143.8,9.66,71.8,9.027868,0,858.7753,0,67.83,2.459,183,0.548,1.064,4.376924,0.512,55.43,63.2,34.61,36.4
"2018-03-08 17:30:00",330934,2.317,147.8,9.51,73.29,1.088689,0,859.184,0,67.45,2.464,181,0.548,1.064,1.303603,0.739,55.37,63.2,34.6,36.4
"2018-03-08 17:40:00",330935,3.199,162.1,9.03,77.52,0,0,859.3145,0,67.18,2.468,189,0.551,1.067,0.08715952,0,55.43,63.26,34.61,36.42
"2018-03-08 17:50:00",330936,3.693,143,8.89,79.53,0,0,859.205,0.5,67.44,2.467,182,0.554,1.069,0,0,55.43,63.32,34.61,36.43
"2018-03-08 18:00:00",330937,3.164,141.7,8.74,80.8,0,0,859.0028,0,67.3,2.468,193,0.557,1.061,0,0,55.43,63.32,34.61,36.43
"2018-03-08 18:10:00",330938,3.915,146,8.8,80.8,0,0.5,858.6869,0,67.2,2.468,187,0.555,1.045,0,0,55.49,63.32,34.63,36.43
"2018-03-08 18:20:00",330939,4.055,153.3,8.81,80.8,0,0,858.5458,0.5,66.73,2.473,189,0.549,1.024,0,0,55.49,63.39,34.63,36.44
"2018-03-08 18:30:00",330940,4.164,144.3,8.87,80.3,0,0,858.2762,0,66.77,2.472,182,0.549,1.028,0,0,55.49,63.39,34.63,36.44
"2018-03-08 18:40:00",330941,3.544,154.7,9.12,79.75,0,0,858.4573,0,66.23,2.477,191,0.552,1.022,0,0,55.49,63.39,34.63,36.44
"2018-03-08 18:50:00",330942,3.901,137.8,8.92,80.8,0,0.5,858.0613,0,65.86,2.481,185,0.567,1.022,0,0,55.55,63.45,34.64,36.46
"2018-03-08 19:00:00",330943,3.915,142.9,9.1,79.39,0,0,857.7012,0.5,66.31,2.476,177,0.564,1.022,0,0,55.49,63.39,34.63,36.44
"2018-03-08 19:10:00",330944,3.136,160.3,9.23,79.08,0.01572115,0,857.7286,0.5,65.77,2.48,185,0.567,1.022,0,0,55.49,63.39,34.63,36.44
"2018-03-08 19:20:00",330945,3.681,153.6,9.24,79.03,0,0,858.0782,0,65.78,2.481,194,0.552,1.022,0,0,55.55,63.45,34.64,36.46
"2018-03-08 19:30:00",330946,3.472,157.9,9.05,79.71,0,0.5,858.0066,0,64.84,2.491,196,0.544,1.022,0,0,55.55,63.39,34.64,36.44
"2018-03-08 19:40:00",330947,3.536,154.7,8.93,79.47,0,0,857.5579,0,64.64,2.493,183,0.54,1.022,0,0,55.55,63.45,34.64,36.46
"2018-03-08 19:50:00",330948,3.03,137.6,8.86,79.71,0.01572115,0,857.6085,0.5,65.56,2.484,170,0.51,1.022,0,0,55.55,63.51,34.64,36.47
"2018-03-08 20:00:00",330949,2.518,158.6,8.89,80.6,0.03537258,0,857.8065,0,64.92,2.491,192,0.499,1.022,0,0,55.6,63.57,34.65,36.49
"2018-03-08 20:10:00",330950,2.9,148.7,8.83,81.5,0,0.5,857.7686,0.5,64.72,2.493,181,0.465,1.022,0,0,55.6,63.57,34.65,36.49
"2018-03-08 20:20:00",330951,3.244,144.5,8.8,82.3,0.003930287,1,857.5137,0.5,64.7,2.494,180,0.465,1.022,0,0,55.55,63.57,34.64,36.49
"2018-03-08 20:30:00",330952,3.372,150.8,8.89,81.8,0.01179086,0.5,857.0251,0.5,64.56,2.494,171,0.462,1.022,0,0,55.55,63.75,34.64,36.53
"2018-03-08 20:40:00",330953,4.466,149,9,81,0.2711898,0.5,856.4459,0.5,63.87,2.499,193,0.462,1.022,0,0,55.6,63.87,34.65,36.55
"2018-03-08 20:50:00",330954,4.449,147.8,9.36,78.59,0.8253603,0,856.1826,0.5,64.33,2.494,185,0.462,1.022,0,0,55.6,64.05,34.65,36.59
"2018-03-08 21:00:00",330955,2.724,173.5,9.11,80.5,0.007860574,0.5,856.8566,1,64.24,2.5,185,0.462,1.022,0,0,55.6,64.18,34.65,36.62
"2018-03-08 21:10:00",330956,1.217,344.3,7.289,92.4,0.0314423,1.5,858.1688,1,63.29,2.516,186,0.491,1.022,0,0,55.66,64.18,34.67,36.62
"2018-03-08 21:20:00",330957,0.617,332.2,6.458,100,0.09825718,1.5,858.5247,2,63.28,2.519,182,0.504,1.024,0,0,55.66,64.3,34.67,36.65
"2018-03-08 21:30:00",330958,0.676,0.207,6.78,100,0.9354083,2,858.3942,2,63.31,2.516,170,0.504,1.037,0.06063271,0.035,55.72,64.97,34.68,36.8
"2018-03-08 21:40:00",330959,0.481,340.3,6.904,100,0.5384493,1.5,858.3372,1.5,62.78,2.522,180,0.504,1.057,0,0,55.83,65.89,34.71,37
"2018-03-08 21:50:00",330960,0.185,132.1,6.606,100,0.3340744,1.5,858.8596,1.5,63.1,2.519,177,0.513,1.061,0,0,55.89,66.45,34.72,37.12
"2018-03-08 22:00:00",330961,1.702,140.5,6.925,100,0.2947715,1,858.0381,0.5,63.31,2.513,171,0.51,1.063,0.03789544,0.072,55.95,66.45,34.74,37.12
"2018-03-08 22:10:00",330962,1.844,157.1,7.911,99,0.341935,0,858.0213,0.5,62.86,2.514,188,0.499,1.063,0,0,56.06,66.51,34.76,37.14
"2018-03-08 22:20:00",330963,2.047,146.1,8.37,87.7,0.2711898,0,858.1456,0,62.62,2.516,178,0.488,1.061,0,0,56.23,66.57,34.8,37.15
"2018-03-08 22:30:00",330964,1.557,141.8,8.29,87.2,0.02358172,0.5,858.0887,0,62.59,2.517,181,0.482,1.058,0,0,56.23,66.51,34.8,37.14
"2018-03-08 22:40:00",330965,1.236,134.8,8.23,86.3,0.1454206,0,857.8107,0.5,62.21,2.519,181,0.461,1.059,0,0,56.23,66.51,34.8,37.14
"2018-03-08 22:50:00",330966,1.27,174.4,8.34,85.2,0.1061177,0,857.7223,0,62.54,2.517,173,0.461,1.019,0,0,56.23,66.51,34.8,37.14
"2018-03-08 23:00:00",330967,0.88,157.7,8.23,86.2,0.01572115,0,857.5411,0,62.15,2.521,190,0.458,0.996,0,0,56.18,66.45,34.79,37.12
"2018-03-08 23:10:00",330968,0.589,130.4,7.843,88.5,0.06288459,0,857.1178,0,62.45,2.519,191,0.468,0.985,0,0,56.12,66.45,34.78,37.12
"2018-03-08 23:20:00",330969,1.001,141.6,8.46,86.8,0.3183532,0,856.7133,0,62.24,2.518,190,0.472,0.981,0.03789544,0.056,56.06,66.51,34.76,37.14
"2018-03-08 23:30:00",330970,0.961,156.7,8.7,84.5,0.2751201,0,856.5048,0,62.42,2.516,169,0.472,0.979,0.02273727,0.037,56.06,66.45,34.76,37.12
"2018-03-08 23:40:00",330971,1.096,134.5,8.74,83.8,1.037596,0,856.2668,0,62.79,2.512,186,0.471,0.979,0.06063271,0.027,56,66.45,34.75,37.12
"2018-03-08 23:50:00",330972,1.055,177.2,8.8,85.4,0.03930287,0,856.1826,0,62.01,2.522,178,0.483,0.979,0.01136863,0.02,56,66.45,34.75,37.12
